Location: Unspecified
(0.0000°N, 0.0000°E)
Time: 15:29:54
(UTC+00:00)

Hubble Space Telescope - Pass Details

Date: 10 March 2018
Orbit: 537 x 541 km, 28.5° (Epoch: 22 June)

Event Time Altitude Azimuth Distance (km) Brightness Sun altitude
Exits shadow 04:40:16 45° 189° (S) 735 1.3 -22.5°
Drops below altitude 10° 04:43:48 10° 136° (SE) 1,782 4.1 -21.6°
Sets 04:46:07 0° 130° (SE) 2,675 5.2 -21.0°
